User: anonymous   Login
Location: Austin
(30.3000°N, 97.7500°W)
Time: 02:02:13
(UTC-05:00)
Language:

COSMOS 2406 - Orbit

View from above orbital plane
View from above orbital plane
View from above satellite
View from above satellite

Ground track
Ground track

The orbit data is extracted from the following two-line orbital elements,

1 28352U 04021A   24281.77019839  .00000591  00000-0  34835-3 0  9999
2 28352  71.0078 309.6374 0010210 351.8580   8.2374 14.12015174 47552
Epoch (UTC): 07 October 2024 18:29:05
Eccentricity: 0.0010210
inclination: 71.0078°
perigee height: 845 km
apogee height: 860 km
right ascension of ascending node: 309.6374°
argument of perigee: 351.8580°
revolutions per day: 14.12015174
mean anomaly at epoch: 8.2374°
orbit number at epoch: 4755

The dashed part of the orbit path shows where the satellite is in the earth's shadow,  

DLR